Location: ??
(31.9467°N, 34.8903°E)
Time: 23:56:57
(UTC+00:00)

Cosmos 968 Rocket - Visible Passes

Search period start: 01 March 2021 00:00
Search period end: 11 March 2021 00:00
Orbit: 740 x 771 km, 74.0° (Epoch: 01 March)

Date Brightness Start Highest point End Pass type
(mag) Time Alt. Az. Time Alt. Az. Time Alt. Az.
01 Mar 4.8 15:55:48 10° NNE 15:59:33 19° ENE 16:03:17 10° ESE visible
01 Mar 4.7 17:36:34 10° NNW 17:41:27 40° W 17:46:19 10° S visible
02 Mar 3.5 16:55:33 10° NNW 17:00:50 82° WSW 17:06:05 10° SSE visible
03 Mar 3.7 16:14:58 10° N 16:20:06 50° ENE 16:25:11 10° SSE visible
03 Mar 6.4 17:58:35 10° WNW 18:01:21 14° W 18:04:07 10° SW visible
04 Mar 5.5 17:16:25 10° NW 17:20:54 29° W 17:25:23 10° SSW visible
05 Mar 4.1 16:35:10 10° NNW 16:40:21 59° WSW 16:45:29 10° S visible
07 Mar 6.2 16:56:25 10° NW 17:00:19 21° W 17:04:14 10° SW visible
08 Mar 4.9 16:14:52 10° NNW 16:19:49 43° WSW 16:24:44 10° S visible
10 Mar 6.6 16:36:42 10° WNW 16:39:44 16° W 16:42:44 10° SW visible
